Location: Knowlton
(51.2333°N, 1.2667°E)
Time: 10:09:47
(UTC+00:00)

CRYOSAT 2 - Pass Details

Date: 18 April 2021
Orbit: 714 x 724 km, 92.0° (Epoch: 16 May)

Event Time Altitude Azimuth Distance (km) Brightness Sun altitude
Exits shadow 22:10:16 60° 200° (SSW) 833 4.4 -23.7°
Maximum altitude 22:11:07 77° 266° (W) 751 4.4 -23.7°
Drops below altitude 10° 22:16:03 10° 353° (N) 2,230 7.9 -24.1°
Sets 22:18:22 0° 355° (N) 3,156 8.8 -24.2°
